This is the latest recevied weather packets stored in our database for station/object K5DLF-13. If no packets are shown the sender has not sent any weather packets the latest 10 day(s).
| Time | Temp. | Humidity | Pressure | Rain* | Wind** | Luminosity | Snow |
|---|---|---|---|---|---|---|---|
| 1778023797 | 26.67° C | 88% | 1004.8 hPa | 0 mm | - | 62 W/m² | - |
| 1778023497 | 26.67° C | 87% | 1004.8 hPa | 0 mm | - | 65 W/m² | - |
| 1778023197 | 26.67° C | 87% | 1004.8 hPa | 0 mm | - | 63 W/m² | - |
| 1778022897 | 26.67° C | 87% | 1004.8 hPa | 0 mm | - | 56 W/m² | - |
| 1778022597 | 26.67° C | 86% | 1004.9 hPa | 0 mm | - | 40 W/m² | - |
| 1778022297 | 26.67° C | 86% | 1004.8 hPa | 0 mm | - | 46 W/m² | - |
| 1778021997 | 27.22° C | 86% | 1004.8 hPa | 0 mm | - | 54 W/m² | - |
| 1778021697 | 27.22° C | 84% | 1004.8 hPa | 0 mm | - | 90 W/m² | - |
| 1778021397 | 27.22° C | 84% | 1004.7 hPa | 0 mm | - | 63 W/m² | - |
| 1778021097 | 27.22° C | 84% | 1004.6 hPa | 0 mm | - | 107 W/m² | - |
| 1778020797 | 27.22° C | 84% | 1004.7 hPa | 0 mm | - | 100 W/m² | - |
| 1778020497 | 27.78° C | 83% | 1004.8 hPa | 0 mm | - | 91 W/m² | - |
| 1778020197 | 27.78° C | 83% | 1004.9 hPa | 0 mm | - | 130 W/m² | - |
| 1778019897 | 27.78° C | 83% | 1004.9 hPa | 0 mm | - | 243 W/m² | - |
| 1778019597 | 27.22° C | 85% | 1004.8 hPa | 0 mm | - | 230 W/m² | - |
| 1778019297 | 27.22° C | 85% | 1004.8 hPa | 0 mm | - | 283 W/m² | - |
| 1778018997 | 27.22° C | 86% | 1004.8 hPa | 0 mm | - | 271 W/m² | - |
| 1778018697 | 27.22° C | 86% | 1004.9 hPa | 0 mm | - | 153 W/m² | - |
| 1778018397 | 27.22° C | 86% | 1005 hPa | 0 mm | - | 193 W/m² | - |
| 1778018097 | 26.67° C | 86% | 1005.2 hPa | 0 mm | - | 188 W/m² | - |
| 1778017797 | 26.67° C | 86% | 1005.2 hPa | 0 mm | - | 200 W/m² | - |
| 1778017497 | 26.67° C | 86% | 1005.3 hPa | 0 mm | - | 181 W/m² | - |
| 1778017197 | 26.67° C | 86% | 1005.4 hPa | 0 mm | - | 128 W/m² | - |
| 1778016897 | 27.22° C | 85% | 1005.4 hPa | 0 mm | - | 90 W/m² | - |
| 1778016597 | 27.22° C | 84% | 1005.4 hPa | 0 mm | - | 156 W/m² | - |
* Rain latest hour (hover to see other rain measurements)
** Current wind speed in m/s (hover to see current wind gust speed)